Location: Sungai Bunut
(2.6333°N, 113.7333°E)
Time: 03:01:35
(UTC+00:00)

S-56A Canister/Altair - Pass Details

Date: 04 December 2023
Orbit: 640 x 2488 km, 38.9° (Epoch: 24 February)

Event Time Altitude Azimuth Distance (km) Brightness Sun altitude
Rises 12:28:34 0° 306° (NW) 4,161 11.6 -31.7°
Reaches altitude 10° 12:31:00 10° 304° (NW) 3,403 11.1 -32.3°
Maximum altitude 12:39:58 74° 221° (SW) 1,853 9.3 -34.3°
Drops below altitude 10° 12:53:19 10° 137° (SE) 4,884 11.4 -37.3°
Sets 12:57:33 0° 136° (SE) 6,037 11.9 -38.2°
